Location: Beddau
(51.5575°N, 3.3561°W)
Time: 14:09:30
(UTC+00:00)

YAOGAN 1 - Pass Details

Date: 03 March 2021
Orbit: 618 x 620 km, 97.9° (Epoch: 10 April)

Event Time Altitude Azimuth Distance (km) Brightness Sun altitude
Rises 19:15:11 0° 180° (S) 2,886 5.9 -12.8°
Reaches altitude 10° 19:17:26 10° 187° (S) 1,985 5.2 -13.2°
Maximum altitude 19:21:35 46° 261° (W) 834 3.7 -13.8°
Drops below altitude 10° 19:25:48 10° 335° (NNW) 2,001 5.6 -14.5°
Sets 19:28:04 0° 342° (NNW) 2,912 6.4 -14.8°
